CW9119 Weather Reports


Display with metric or nautical units.
time (UTC)temp
F
wind
direction
speed
MPH
gust
MPH
rain 1hr
in
rain 24hr
in
rain mn
in
humidity
%
barometer
mb
20260503053108 49 172 0.0 0.0 0.00 0.00 0.00 72 1017.0
20260503052108 48 172 0.0 0.0 0.00 0.00 0.00 74 1017.0
20260503051107 46 172 0.0 0.0 0.00 0.00 0.00 78 1016.9
20260503050107 45 172 0.0 0.0 0.00 0.00 0.00 78 1016.8
20260503045107 44 172 0.0 0.0 0.00 0.00 0.00 79 1016.7
20260503043107 42 172 0.0 0.0 0.00 0.00 0.00 80 1016.8
20260503042107 41 172 0.0 0.0 0.00 0.00 0.00 80 1016.6
20260503035107 41 172 0.0 0.0 0.00 0.00 0.00 80 1016.6
20260503033107 41 172 0.0 0.0 0.00 0.00 0.00 80 1016.5
20260503032107 41 172 0.0 0.0 0.00 0.00 0.00 80 1016.6
20260503030106 41 172 0.0 0.0 0.00 0.00 0.00 79 1016.6
20260503025106 41 172 0.0 0.0 0.00 0.00 0.00 78 1016.5
20260503024106 41 172 0.0 0.0 0.00 0.00 0.00 78 1016.8
20260503023106 41 172 0.0 1.0 0.00 0.00 0.00 78 1016.8
20260503012106 42 172 0.0 0.0 0.00 0.00 0.00 75 1017.1
20260503011106 42 172 0.0 0.0 0.00 0.00 0.00 74 1017.1
20260503010106 42 172 0.0 0.0 0.00 0.00 0.00 74 1017.2
20260503005106 42 172 0.0 0.0 0.00 0.00 0.00 74 1017.2
20260503004106 42 172 0.0 0.0 0.00 0.00 0.00 73 1017.1
20260503001106 43 172 0.0 0.0 0.00 0.00 0.00 71 1017.3
20260503000106 43 172 0.0 0.0 0.00 0.00 0.00 70 1017.4
20260502235106 43 172 0.0 0.0 0.00 0.00 0.00 70 1017.5
20260502234106 43 172 0.0 0.0 0.00 0.00 0.00 70 1017.4
20260502233106 43 172 0.0 0.0 0.00 0.00 0.00 69 1017.6
20260502232106 44 172 0.0 0.0 0.00 0.00 0.00 69 1017.7
20260502220105 46 172 0.0 0.0 0.00 0.00 0.00 64 1017.9
20260502215110 46 172 0.0 0.0 0.00 0.00 0.00 63 1017.9
20260502211109 49 172 0.0 0.0 0.00 0.00 0.00 59 1018.2
20260502210110 49 172 0.0 0.0 0.00 0.00 0.00 58 1018.3
20260502205109 50 172 0.0 0.0 0.00 0.00 0.00 57 1018.3
20260502203109 51 172 0.0 0.0 0.00 0.00 0.00 55 1018.4
20260502200109 53 172 0.0 0.0 0.00 0.00 0.00 51 1018.7
20260502195109 54 172 0.0 0.0 0.00 0.00 0.00 49 1018.7
20260502193109 56 172 0.0 0.0 0.00 0.00 0.00 44 1018.7
20260502191109 58 172 0.0 0.0 0.00 0.00 0.00 43 1018.7
20260502185108 60 172 0.0 0.0 0.00 0.00 0.00 40 1018.7
20260502184108 61 172 0.0 0.0 0.00 0.00 0.00 39 1018.6
20260502182108 62 172 0.0 0.0 0.00 0.00 0.00 36 1018.3
20260502180108 64 172 0.0 0.0 0.00 0.00 0.00 33 1018.3
20260502163107 70 149 0.0 6.0 0.00 0.00 0.00 27 1018.3
20260502162107 70 148 0.0 6.0 0.00 0.00 0.00 29 1018.3
20260502161107 71 146 1.0 8.0 0.00 0.00 0.00 27 1018.5
20260502151107 70 172 1.0 5.0 0.00 0.00 0.00 28 1019.1
20260502140106 72 163 0.0 1.0 0.00 0.00 0.00 30 1020.2
20260502130106 72 152 1.0 8.0 0.00 0.00 0.00 31 1020.8
20260502123106 72 153 3.0 10.0 0.00 0.00 0.00 32 1021.1
20260502120106 71 157 1.0 8.0 0.00 0.00 0.00 34 1021.6
20260502115105 71 80 1.0 6.0 0.00 0.00 0.00 36 1021.6
20260502112105 71 94 1.0 6.0 0.00 0.00 0.00 32 1022.1
20260502100110 69 130 2.0 8.0 0.00 0.00 0.00 36 1023.2
20260502091109 67 171 2.0 10.0 0.00 0.00 0.00 36 1023.4
20260502080109 66 174 3.0 8.0 0.00 0.00 0.00 39 1024.3
20260502071108 62 38 0.0 1.0 0.00 0.00 0.00 55 1024.5
20260502070108 61 38 0.0 1.0 0.00 0.00 0.00 56 1024.5
20260502065108 60 38 0.0 1.0 0.00 0.00 0.00 58 1024.5
20260502061108 54 38 0.0 0.0 0.00 0.00 0.00 68 1024.7